Location: *
(58.4167°N, 22.5000°E)
Time: 09:28:15
(UTC+00:00)

ATLAS CENTAUR R/B - Pass Details

Date: 22 September 2019
Orbit: 451 x 698 km, 64.7° (Epoch: 08 October)

Event Time Altitude Azimuth Distance (km) Brightness Sun altitude
Exits shadow 23:37:42 35° 331° (NNW) 1,085 3.0 -29.6°
Maximum altitude 23:38:40 39° 360° (N) 1,002 3.0 -29.6°
Drops below altitude 10° 23:43:00 10° 69° (ENE) 2,024 4.7 -29.3°
Sets 23:45:21 0° 78° (ENE) 2,891 5.5 -29.2°
